Time,TemperatureF,DewpointF,PressureIn,WindDirection,WindDirectionDegrees,WindSpeedMPH,WindSpeedGustMPH,Humidity,HourlyPrecipIn,Conditions,Clouds,dailyrainin,SolarRadiationWatts/m^2,SoftwareType,DateUTC
2013-05-19 00:21:00,38.0,27.0,-100.00,East,96,0.0,4.0,64,0.00,,,0.00,1.000000,,2013-05-19 06:21:00,
2013-05-19 00:32:00,38.0,27.0,-100.00,East,96,0.0,4.0,64,0.00,,,0.00,1.000000,,2013-05-19 06:32:00,
2013-05-19 00:42:00,38.0,27.0,-100.00,East,96,0.0,4.0,64,0.00,,,0.00,1.000000,,2013-05-19 06:42:00,
2013-05-19 00:51:00,38.0,27.0,-100.00,East,96,0.0,4.0,64,0.00,,,0.00,1.000000,,2013-05-19 06:51:00,
2013-05-19 01:21:00,40.0,28.0,-100.00,SW,219,1.0,5.0,62,0.00,,,0.00,1.000000,,2013-05-19 07:21:00,
2013-05-19 01:32:00,40.0,28.0,-100.00,SW,219,1.0,5.0,62,0.00,,,0.00,1.000000,,2013-05-19 07:32:00,
2013-05-19 01:41:00,40.0,28.0,-100.00,SW,219,1.0,5.0,62,0.00,,,0.00,1.000000,,2013-05-19 07:41:00,
2013-05-19 01:52:00,40.0,28.0,-100.00,SW,219,1.0,5.0,62,0.00,,,0.00,1.000000,,2013-05-19 07:52:00,
2013-05-19 02:22:00,36.0,27.0,-100.00,ENE,61,2.0,4.0,70,0.00,,,0.00,1.000000,,2013-05-19 08:22:00,
2013-05-19 02:32:00,36.0,27.0,-100.00,ENE,61,2.0,4.0,70,0.00,,,0.00,1.000000,,2013-05-19 08:32:00,
2013-05-19 02:41:00,36.0,27.0,-100.00,ENE,61,2.0,4.0,70,0.00,,,0.00,1.000000,,2013-05-19 08:41:00,
2013-05-19 02:51:00,36.0,27.0,-100.00,ENE,61,2.0,4.0,70,0.00,,,0.00,1.000000,,2013-05-19 08:51:00,
2013-05-19 03:21:00,35.0,27.0,-100.00,NE,46,2.0,4.0,71,0.00,,,0.00,1.000000,,2013-05-19 09:21:00,
2013-05-19 03:32:00,35.0,27.0,-100.00,NE,46,2.0,4.0,71,0.00,,,0.00,1.000000,,2013-05-19 09:32:00,
2013-05-19 03:42:00,35.0,27.0,-100.00,NE,46,2.0,4.0,71,0.00,,,0.00,1.000000,,2013-05-19 09:42:00,
2013-05-19 03:53:00,35.0,27.0,-100.00,NE,46,2.0,4.0,71,0.00,,,0.00,1.000000,,2013-05-19 09:53:00,
2013-05-19 04:22:00,34.0,27.0,-100.00,SE,136,0.0,2.0,76,0.00,,,0.00,1.000000,,2013-05-19 10:22:00,
2013-05-19 04:32:00,34.0,27.0,-100.00,SE,136,0.0,2.0,76,0.00,,,0.00,1.000000,,2013-05-19 10:32:00,
2013-05-19 04:42:00,34.0,27.0,-100.00,SE,136,0.0,2.0,76,0.00,,,0.00,1.000000,,2013-05-19 10:42:00,
2013-05-19 04:52:00,34.0,27.0,-100.00,SE,136,0.0,2.0,76,0.00,,,0.00,1.000000,,2013-05-19 10:52:00,
2013-05-19 05:21:00,32.0,26.0,-100.00,ENE,76,0.0,3.0,78,0.00,,,0.00,1.000000,,2013-05-19 11:21:00,
2013-05-19 05:32:00,32.0,26.0,-100.00,ENE,76,0.0,3.0,78,0.00,,,0.00,1.000000,,2013-05-19 11:32:00,
2013-05-19 05:42:00,32.0,26.0,-100.00,ENE,76,0.0,3.0,78,0.00,,,0.00,1.000000,,2013-05-19 11:42:00,
2013-05-19 05:52:00,32.0,26.0,-100.00,ENE,76,0.0,3.0,78,0.00,,,0.00,1.000000,,2013-05-19 11:52:00,
2013-05-19 06:21:00,32.0,25.0,-100.00,East,86,1.0,3.0,76,0.00,,,0.00,1.000000,,2013-05-19 12:21:00,
2013-05-19 06:31:00,32.0,25.0,-100.00,East,86,1.0,3.0,76,0.00,,,0.00,1.000000,,2013-05-19 12:31:00,
2013-05-19 06:41:00,32.0,25.0,-100.00,East,86,1.0,3.0,76,0.00,,,0.00,1.000000,,2013-05-19 12:41:00,
2013-05-19 06:52:00,32.0,25.0,-100.00,East,86,1.0,3.0,76,0.00,,,0.00,1.000000,,2013-05-19 12:52:00,
2013-05-19 07:21:00,37.0,28.0,-100.00,ENE,60,1.0,2.0,69,0.00,,,0.00,21.000000,,2013-05-19 13:21:00,
2013-05-19 07:32:00,37.0,28.0,-100.00,ENE,60,1.0,2.0,69,0.00,,,0.00,21.000000,,2013-05-19 13:32:00,
2013-05-19 07:42:00,37.0,28.0,-100.00,ENE,60,1.0,2.0,69,0.00,,,0.00,21.000000,,2013-05-19 13:42:00,
2013-05-19 07:52:00,37.0,28.0,-100.00,ENE,60,1.0,2.0,69,0.00,,,0.00,21.000000,,2013-05-19 13:52:00,
2013-05-19 08:21:00,43.0,26.0,-100.00,West,263,4.0,7.0,51,0.00,,,0.00,187.000000,,2013-05-19 14:21:00,
2013-05-19 08:32:00,43.0,26.0,-100.00,West,263,4.0,7.0,51,0.00,,,0.00,187.000000,,2013-05-19 14:32:00,
2013-05-19 08:41:00,43.0,26.0,-100.00,West,263,4.0,7.0,51,0.00,,,0.00,187.000000,,2013-05-19 14:41:00,
2013-05-19 08:51:00,43.0,26.0,-100.00,West,263,4.0,7.0,51,0.00,,,0.00,187.000000,,2013-05-19 14:51:00,
2013-05-19 09:21:00,48.0,27.0,-100.00,West,265,5.0,11.0,43,0.00,,,0.00,346.000000,,2013-05-19 15:21:00,
2013-05-19 09:33:00,48.0,27.0,-100.00,West,265,5.0,11.0,43,0.00,,,0.00,346.000000,,2013-05-19 15:33:00,
2013-05-19 09:43:00,48.0,27.0,-100.00,West,265,5.0,11.0,43,0.00,,,0.00,346.000000,,2013-05-19 15:43:00,
2013-05-19 09:53:00,48.0,27.0,-100.00,West,265,5.0,11.0,43,0.00,,,0.00,346.000000,,2013-05-19 15:53:00,
2013-05-19 10:23:00,48.0,24.0,-100.00,West,267,7.0,13.0,39,0.00,,,0.00,514.000000,,2013-05-19 16:23:00,
2013-05-19 10:32:00,48.0,24.0,-100.00,West,267,7.0,13.0,39,0.00,,,0.00,514.000000,,2013-05-19 16:32:00,
2013-05-19 10:42:00,48.0,24.0,-100.00,West,267,7.0,13.0,39,0.00,,,0.00,514.000000,,2013-05-19 16:42:00,
2013-05-19 10:52:00,48.0,24.0,-100.00,West,267,7.0,13.0,39,0.00,,,0.00,514.000000,,2013-05-19 16:52:00,
2013-05-19 11:22:00,52.0,25.0,-100.00,WSW,250,6.0,20.0,35,0.00,,,0.00,705.000000,,2013-05-19 17:22:00,
2013-05-19 11:32:00,52.0,25.0,-100.00,WSW,250,6.0,20.0,35,0.00,,,0.00,705.000000,,2013-05-19 17:32:00,
2013-05-19 11:42:00,52.0,25.0,-100.00,WSW,250,6.0,20.0,35,0.00,,,0.00,705.000000,,2013-05-19 17:42:00,
2013-05-19 11:52:00,52.0,25.0,-100.00,WSW,250,6.0,20.0,35,0.00,,,0.00,705.000000,,2013-05-19 17:52:00,
2013-05-19 12:22:00,51.0,22.0,-100.00,West,272,6.0,16.0,32,0.00,,,0.00,560.000000,,2013-05-19 18:22:00,
2013-05-19 12:32:00,51.0,22.0,-100.00,West,272,6.0,16.0,32,0.00,,,0.00,560.000000,,2013-05-19 18:32:00,
2013-05-19 12:42:00,51.0,22.0,-100.00,West,272,6.0,16.0,32,0.00,,,0.00,560.000000,,2013-05-19 18:42:00,
2013-05-19 12:52:00,51.0,22.0,-100.00,West,272,6.0,16.0,32,0.00,,,0.00,560.000000,,2013-05-19 18:52:00,
2013-05-19 13:21:00,49.0,21.0,-100.00,WSW,251,5.0,16.0,33,0.00,,,0.00,505.000000,,2013-05-19 19:21:00,
2013-05-19 13:32:00,49.0,21.0,-100.00,WSW,251,5.0,16.0,33,0.00,,,0.00,505.000000,,2013-05-19 19:32:00,
2013-05-19 13:42:00,49.0,21.0,-100.00,WSW,251,5.0,16.0,33,0.00,,,0.00,505.000000,,2013-05-19 19:42:00,
2013-05-19 13:52:00,49.0,21.0,-100.00,WSW,251,5.0,16.0,33,0.00,,,0.00,505.000000,,2013-05-19 19:52:00,
2013-05-19 14:21:00,48.0,24.0,-100.00,WSW,246,5.0,20.0,39,0.00,,,0.00,440.000000,,2013-05-19 20:21:00,
2013-05-19 14:31:00,48.0,24.0,-100.00,WSW,246,5.0,20.0,39,0.00,,,0.00,440.000000,,2013-05-19 20:31:00,
2013-05-19 14:41:00,48.0,24.0,-100.00,WSW,246,5.0,20.0,39,0.00,,,0.00,440.000000,,2013-05-19 20:41:00,
2013-05-19 14:51:00,48.0,24.0,-100.00,WSW,246,5.0,20.0,39,0.00,,,0.00,440.000000,,2013-05-19 20:51:00,
2013-05-19 15:22:00,56.0,23.0,-100.00,West,269,8.0,18.0,27,0.00,,,0.00,742.000000,,2013-05-19 21:22:00,
2013-05-19 15:32:00,56.0,23.0,-100.00,West,269,8.0,18.0,27,0.00,,,0.00,742.000000,,2013-05-19 21:32:00,
2013-05-19 15:43:00,56.0,23.0,-100.00,West,269,8.0,18.0,27,0.00,,,0.00,742.000000,,2013-05-19 21:43:00,
2013-05-19 15:53:00,56.0,23.0,-100.00,West,269,8.0,18.0,27,0.00,,,0.00,742.000000,,2013-05-19 21:53:00,
2013-05-19 16:23:00,56.0,23.0,-100.00,NNE,20,7.0,16.0,27,0.00,,,0.00,917.000000,,2013-05-19 22:23:00,
2013-05-19 16:33:00,56.0,23.0,-100.00,NNE,20,7.0,16.0,27,0.00,,,0.00,917.000000,,2013-05-19 22:33:00,
2013-05-19 16:42:00,56.0,23.0,-100.00,NNE,20,7.0,16.0,27,0.00,,,0.00,917.000000,,2013-05-19 22:42:00,
2013-05-19 16:52:00,56.0,23.0,-100.00,NNE,20,7.0,16.0,27,0.00,,,0.00,917.000000,,2013-05-19 22:52:00,
2013-05-19 17:21:00,47.0,28.0,-100.00,NE,44,8.0,19.0,48,0.00,,,0.00,302.000000,,2013-05-19 23:21:00,
2013-05-19 17:32:00,47.0,28.0,-100.00,NE,44,8.0,19.0,48,0.00,,,0.00,302.000000,,2013-05-19 23:32:00,
2013-05-19 17:42:00,47.0,28.0,-100.00,NE,44,8.0,19.0,48,0.00,,,0.00,302.000000,,2013-05-19 23:42:00,
2013-05-19 17:52:00,47.0,28.0,-100.00,NE,44,8.0,19.0,48,0.00,,,0.00,302.000000,,2013-05-19 23:52:00,
2013-05-19 18:21:00,48.0,28.0,-100.00,NE,48,6.0,17.0,46,0.01,,,0.01,270.000000,,2013-05-20 00:21:00,
2013-05-19 18:32:00,48.0,28.0,-100.00,NE,48,6.0,17.0,46,0.01,,,0.01,270.000000,,2013-05-20 00:32:00,
2013-05-19 18:41:00,48.0,28.0,-100.00,NE,48,6.0,17.0,46,0.01,,,0.01,270.000000,,2013-05-20 00:41:00,
2013-05-19 18:52:00,48.0,28.0,-100.00,NE,48,6.0,17.0,46,0.01,,,0.01,270.000000,,2013-05-20 00:52:00,
2013-05-19 19:21:00,47.0,29.0,-100.00,NE,44,7.0,16.0,50,0.00,,,0.01,252.000000,,2013-05-20 01:21:00,
2013-05-19 19:31:00,47.0,29.0,-100.00,NE,44,7.0,16.0,50,0.00,,,0.01,252.000000,,2013-05-20 01:31:00,
2013-05-19 19:42:00,47.0,29.0,-100.00,NE,44,7.0,16.0,50,0.00,,,0.01,252.000000,,2013-05-20 01:42:00,
2013-05-19 19:52:00,47.0,29.0,-100.00,NE,44,7.0,16.0,50,0.00,,,0.01,252.000000,,2013-05-20 01:52:00,
2013-05-19 20:21:00,42.0,31.0,-100.00,NE,55,6.0,16.0,65,0.00,,,0.01,40.000000,,2013-05-20 02:21:00,
2013-05-19 20:31:00,42.0,31.0,-100.00,NE,55,6.0,16.0,65,0.00,,,0.01,40.000000,,2013-05-20 02:31:00,
2013-05-19 20:42:00,42.0,31.0,-100.00,NE,55,6.0,16.0,65,0.00,,,0.01,40.000000,,2013-05-20 02:42:00,
2013-05-19 20:51:00,42.0,31.0,-100.00,NE,55,6.0,16.0,65,0.00,,,0.01,40.000000,,2013-05-20 02:51:00,
2013-05-19 21:21:00,41.0,29.0,-100.00,East,99,3.0,10.0,62,0.00,,,0.01,5.000000,,2013-05-20 03:21:00,
2013-05-19 21:33:00,41.0,29.0,-100.00,East,99,3.0,10.0,62,0.00,,,0.01,5.000000,,2013-05-20 03:33:00,
2013-05-19 21:42:00,41.0,29.0,-100.00,East,99,3.0,10.0,62,0.00,,,0.01,5.000000,,2013-05-20 03:42:00,
2013-05-19 21:52:00,41.0,29.0,-100.00,East,99,3.0,10.0,62,0.00,,,0.01,5.000000,,2013-05-20 03:52:00,
2013-05-19 22:23:00,40.0,30.0,-100.00,East,87,4.0,11.0,66,0.00,,,0.01,1.000000,,2013-05-20 04:23:00,
2013-05-19 22:33:00,40.0,30.0,-100.00,East,87,4.0,11.0,66,0.00,,,0.01,1.000000,,2013-05-20 04:33:00,
2013-05-19 22:42:00,40.0,30.0,-100.00,East,87,4.0,11.0,66,0.00,,,0.01,1.000000,,2013-05-20 04:42:00,
2013-05-19 22:52:00,40.0,30.0,-100.00,East,87,4.0,11.0,66,0.00,,,0.01,1.000000,,2013-05-20 04:52:00,
2013-05-19 23:21:00,36.0,28.0,-100.00,ENE,75,4.0,6.0,72,0.00,,,0.01,1.000000,,2013-05-20 05:21:00,
2013-05-19 23:32:00,36.0,28.0,-100.00,ENE,75,4.0,6.0,72,0.00,,,0.01,1.000000,,2013-05-20 05:32:00,
2013-05-19 23:42:00,36.0,28.0,-100.00,ENE,75,4.0,6.0,72,0.00,,,0.01,1.000000,,2013-05-20 05:42:00,
2013-05-19 23:51:00,36.0,28.0,-100.00,ENE,75,4.0,6.0,72,0.00,,,0.01,1.000000,,2013-05-20 05:51:00,